sat.trackr.live / text

‹ back to catalog

2021-091D

NORAD 49318 · 2021-091D

PAYLOAD ACTIVE UNKNOWN

§ Identity

Operator
Country
PRC
Launch date
2021-10-14
Launch site
TAISC
Launch vehicle
Mass (kg)
RCS (m²)

External: N2YO · Heavens-Above · Gunter

§ Orbital elements

Epoch: 2026-05-25T04:29:02.831712Z

Period
102.85 min
Inclination
97.4529°
Eccentricity
0.0013838
Mean motion
14.00148483 rev/d
Perigee alt
883.2 km
Apogee alt
903.3 km
Semi-major
7,271.4 km
B*
7.6473e-5
RAAN
182.1884°
Arg perigee
44.8963°
Mean anomaly
315.3323°
Rev number
24,486

§ Raw data

2021-091D1 49318U 21091D   26145.18683833  .00000081  00000+0  76473-4 0  99952 49318  97.4529 182.1884 0013838  44.8963 315.3323 14.00148483244869

JSON: /api/v1/satellites/49318 · /tle

For live sub-satellite position, see the globe view (requires WebGL).

§ Visibility from observer

Set your observer location to see the next 7 days of passes ≥ 10°. The values pass through the URL so the page stays shareable.

No JS? Fill the form by hand. The geolocation button needs JavaScript.